Location: Kellogg
(38.0159°N, 90.0546°W)
Time: 05:11:28
(UTC+00:00)

Vanguard 2 - Visible Passes

Search period start: 17 February 2026 00:00
Search period end: 27 February 2026 00:00
Orbit: 553 x 2897 km, 32.9° (Epoch: 15 February)

Date Brightness Start Highest point End Pass type
(mag) Time Alt. Az. Time Alt. Az. Time Alt. Az.
17 Feb 9.8 10:19:27 16° S 10:20:45 17° SSE 10:24:01 10° ESE visible
18 Feb 9.5 10:30:57 20° S 10:32:44 22° SSE 10:36:37 10° ESE visible
19 Feb 9.1 10:42:23 23° SSW 10:44:42 28° SSE 10:48:56 10° ESE visible
20 Feb 8.8 10:53:45 24° SSW 10:56:39 35° SSE 11:01:04 10° ESE visible
21 Feb 10.3 09:04:07 15° ESE 09:04:07 15° ESE 09:05:23 10° ESE visible
21 Feb 8.5 11:05:03 23° SW 11:08:36 41° S 11:13:07 10° E visible
22 Feb 10.0 09:15:22 21° ESE 09:15:22 21° ESE 09:17:47 10° ESE visible
22 Feb 8.3 11:16:18 21° WSW 11:20:33 47° S 11:25:07 10° E visible
23 Feb 9.6 09:26:34 29° SE 09:26:34 29° SE 09:30:00 10° E visible
23 Feb 8.2 11:27:30 18° WSW 11:32:29 51° S 11:37:04 10° ESE visible
24 Feb 9.2 09:37:43 39° SE 09:37:43 39° SE 09:42:05 10° E visible
24 Feb 8.2 11:38:39 14° WSW 11:44:24 52° S 11:48:59 10° ESE visible
25 Feb 8.9 09:48:51 48° SSE 09:48:51 48° SSE 09:54:06 10° E visible
25 Feb 8.2 11:49:46 11° W 11:56:19 51° S 12:00:53 10° ESE visible
26 Feb 8.6 09:59:56 54° S 10:00:09 55° S 10:06:04 10° E visible
26 Feb 8.3 12:01:24 10° W 12:08:12 48° SSW 12:12:42 10° ESE visible
